Regional Weather Roundup
Issued by NWS Charleston, SC

Current Version | Previous Version | Graphics & Text | Print | Product List | Glossary On
Versions: 1 2 3 4 5 6 7 8 9 10 11 12 13 14 15 16 17 18 19 20 21 22 23 24 25 26 27 28 29 30 31 32 33 34 35 36 37 38 39 40 41 42 43 44 45 46 47 48 49 50
000 ASUS42 KCHS 211827 RWRCHS REGIONAL WEATHER ROUNDUP NATIONAL WEATHER SERVICE CHARLESTON SC 200 PM EDT SAT OCT 21 2017 NOTE: "FAIR" INDICATES FEW OR NO CLOUDS BELOW 12,000 FEET WITH NO SIGNIFICANT WEATHER AND/OR OBSTRUCTIONS TO VISIBILITY. NOT ALL STATIONS ARE QUALITY CONTROLLED. USE DATA WITH CAUTION... ESPECIALLY DEWPOINT OBSERVATIONS. SCZ027-030-031-034>040-042>050-211900- ...SOUTHEAST SOUTH CAROLINA... CITY SKY/WX TMP DP RH WIND PRES REMARKS N CHARLESTON MOSUNNY 80 63 55 SE8 30.27F 6HR MIN TEMP: 56; 6HR MAX TEMP: 81; WATERFRONT PRK N/A 77 64 64 E9 30.12F JOHNS ISLAND FAIR 79 64 61 E12 30.27S PINOPOLIS N/A 73 63 68 N5 30.21F MONCKS CORNER FAIR 77 59 53 N6 30.27F SUMMERVILLE FAIR 79 59 50 CALM 30.28F BEAUFORT MCAS SUNNY 81 63 54 MISG 30.26F 6HR MIN TEMP: 59; 6HR MAX TEMP: 81; BEAUFORT ARPT FAIR 77 63 61 E9 30.25F HILTON HEAD IS SUNNY 77 63 61 NE9 N/A WALTERBORO PTCLDY 77 61 57 SE3 30.27F ALLENDALE N/A 79 48 34 VRB5 N/A ...SOUTHERN MIDLANDS AND PEE DEE... CITY SKY/WX TMP DP RH WIND PRES REMARKS GEORGETOWN FAIR 77 59 53 E8 30.29F KINGSTREE FAIR 79 50 36 CALM 30.28F ORANGEBURG SUNNY 78 48 34 SE5 30.28F 6HR MIN TEMP: 49; 6HR MAX TEMP: 79; BARNWELL N/A 81 52 36 E7 30.27F AIKEN FAIR 77 50 38 NE9 30.31F MANNING FAIR N/A N/A N/A MISG 30.28F COLUMBIA PTSUNNY 79 57 46 SE6 30.28F 6HR MIN TEMP: 48; 6HR MAX TEMP: 79; SUMTER SUNNY 79 50 36 E5 30.26F 6HR MIN TEMP: 49; 6HR MAX TEMP: 80; FLORENCE SUNNY 78 53 41 NE5 30.29F 6HR MIN TEMP: 50; 6HR MAX TEMP: 79; MYRTLE BEACH SUNNY 76 60 57 E8 30.30F N MYRTLE BEACH SUNNY 76 57 51 E10 30.29F 6HR MIN TEMP: 55; 6HR MAX TEMP: 76; $$ GAZ063-065-086>088-099>101-113>116-118-119-134>141-150-211900- ...SOUTHEAST GEORGIA... CITY SKY/WX TMP DP RH WIND PRES REMARKS SAVANNAH ARPT PTSUNNY 83 61 47 E8 30.25F 6HR MIN TEMP: 59; 6HR MAX TEMP: 83; HUNTER AAF CLOUDY 82 62 51 E7 30.22F 6HR MIN TEMP: 62; 6HR MAX TEMP: 82; 6HR PCP: TRACE; FORT STEWART CLOUDY 81 62 52 NE9 30.22F 6HR MIN TEMP: 60; 6HR MAX TEMP: 82; STATESBORO SUNNY 82 45 27 N6 30.25F SYLVANIA CLEAR 80 57 45 E5 30.26F CLAXTON FAIR 84 61 45 NE8 30.24F ...CSRA...CENTRAL AND FAR SOUTHEAST GEORGIA... CITY SKY/WX TMP DP RH WIND PRES REMARKS THOMSON CLOUDY 78 50 38 S6 30.31F AUGUSTA-BUSH MOSUNNY 81 53 37 SE7 30.26F 6HR MIN TEMP: 47; 6HR MAX TEMP: 81; AUGUSTA-DANIEL CLOUDY 79 51 37 SE7 30.28F SWAINSBORO FAIR 81 52 36 E3 30.25F VIDALIA SUNNY 84 59 42 E9 30.23F EASTMAN MOCLDY 84 44 24 E7 30.25F HAZLEHURST FAIR 83 45 25 SE6 30.21F ALMA PTSUNNY 82 63 52 VRB7 30.22F 6HR MIN TEMP: 63; 6HR MAX TEMP: 83; WAYCROSS MOSUNNY 83 61 46 E9G17 30.20F JESUP FAIR 82 63 51 E8 30.22 BAXLEY PTSUNNY 79 63 57 E6 30.22F BRUNSWICK MOSUNNY 79 64 61 NE17G25 30.24F SAINT SIMONS MOSUNNY 80 69 69 NE17 30.23F 6HR MIN TEMP: 68; 6HR MAX TEMP: 81; $$ SCZ027-028-034-036>038-045-046-048>050-GAZ119-141-211900- ...LAKE AND SUPPLEMENTAL COASTAL OBSERVATIONS... STATION/POSITION TIME TEMP WIND PRES WAVE SWELL AIR SEA DIR/SP/G HT/PER HT/PER/DIR (UTC) (F) (DEG/KT/KT) (MB) (FT/S) (FT/S/D) WINYAH BAY 1730 72 70/ 8 1026.0F LAKE MURRAY 1750 75 200/ 5/ 5 1024.7F ACE BASIN NERRS 1745 81 50/ 2 1025.0F FORT PULASKI 1800 74 73 80/ 12/ 15 1024.8 SAPELO ISLAND NOT AVBL $$ ANZ835-935-AMZ111-154-330-350-352-354-370-450-454-472-211900- ...C-MAN AND BUOY OBSERVATIONS... STATION/POSITION TIME TEMP WIND PRES WAVE SWELL AIR SEA DIR/SP/G HT/PER HT/PER/DIR (UTC) (F) (DEG/KT/KT) (MB) (FT/S) (FT/S/D) BUOY 41004 1810 76 80 40/ 17/ 21 1024.1 BUOY 41008 1750 75 77 60/ 17/ 21 1023.3F 4/ 5 2/100/ 9 FOLLY BEACH CMAN 1800 73 50/ 13/ 15 1025.8F CAPERS NEARSHORE 1808 71 73 60/ 14/ 19 1024.8F FRIPP NEARSHORE 1808 74 60/ 14/ 17 N/A STATION/POSITION TIME TEMP WIND PRES WAVE SWELL AIR SEA DIR/SP/G HT/PER HT/PER/DIR (UTC) (F) (DEG/KT/KT) (MB) (FT/S) (FT/S/D) 5E ST. MARYS GA 1800 77 N/A 4/ 5 FRYING PAN BUOY 1810 75 76 50/ 10/ 12 1025.3 BUOY 41025 1750 73 81 20/ 8/ 12 1026.3F 3/ 8 3/140/ 8 CAPE LOOKOUT NC 1800 72 50/ 12/ 12 1026.0F BUOY 41002 1750 77 80 70/ 12/ 14 1024.4F 4/ 8 3/ 80/ 8 BUOY 41010 NOT AVBL ST AUGUSTINE FL 1800 79 77 80/ 14/ 16 1022.8F $$

USA.gov is the U.S. government's official web portal to all federal, state and local government web resources and services.